DECAYED

CZ-3B R/B, 66587 (Decayed)

Orbit data source: Space-Track

CZ-3B R/B, 66587 was space debris in HEO originally from a launch on Fri, 21 Nov 2025 UTC launched from the Xichang Space Center, China (XSC). Debris objects in space refer to the collection of defunct objects orbiting the Earth. Examples of debris include non-operational satellites, rocket bodies, and fragments generated from explosions, collisions, or faulty payload assembly.

Not visible in the next 10 days
Identifier
66587, 2025-269B
Orbit
Decayed
Country
Flag of CNCN / PRC
Related business
Manufacturer
CALT
Mission
Decayed spacecraft
Bus & Motor
CZ-3A STAGE 3, Unknown motor
Mass
~2,800 kg wet, ~2,800 kg dry
Launch date (UTC)
2025-11-21 (8 months ago)
Launch vehicle
Unknown
Launch site
Xichang Space Center, China (XSC)
Object type
Payload
Rocket body
Debris
Shape & HBR
Cyl + 1 Nozzle, 8.0 m
Radar Cross Section
32.704 m², Large (>1 m²)

Expand to show TLE details & history
Last TLE update: 5 months ago

TLE from 5 months ago
0 CZ-3B R/B
1 66587U 25269B   26033.71218547  .07375301 -37484-5  39301-2 0  9991
2 66587  51.2778 156.3806 6804517 238.9166 343.0380  3.00214384  1589
Epoch: 2026-02-02T17:05Z
TLE epoch observation values (Epoch: 2026-02-02T17:05:32.824Z)
Latitude
20.3949°
Longitude
-70.16137°
Altitude
3,970.647 km
Speed
7.577 km/s
True Right ascension
21h 16m 30s
True Declination
20° 19' 03"
Sunlit
Object was in daylight at epoch
Visualization orbit readout
Latitude
Unknown
Longitude
Unknown
Altitude
Unknown
Speed
Unknown
Apparent Right ascension
Unknown
Apparent Declination
Unknown
Sunlit
N/A
Visualization observer readout
Local Sidereal Time
05:33:50
Azimuth
Unknown
Elevation
Unknown
Doppler factor
Unknown
Orbital elements
Apogee altitude
27,732.048 km
Perigee altitude
108.126 km
Semi-major axis
20,298.224 km
Eccentricity
0.68045
Inclination
51.2778°
RAAN
156.3806°
Arg. of periapsis
238.9166°
True anomaly
274.24325°
Mean anomaly
343.038°
Eccentric anomaly
315.9126°
Mean motion
0.75051 °/min
Orbital period
479.67 mins
BSTAR
0.0039301
Loading maneuver chart data...
Computing Atmospheric mass density...
Loading historical data...
Loading historical data...
Loading historical data...
Loading historical data...
Loading historical data...
Loading historical data...
Loading historical data...
Other satellites on launch #269 in the year 2025 (2025-11-21 UTC)

Documentation

Showing up to 5 results
|